GFSNGP_2pvu_pres_024.txt.gz
Presure
197 198 198 195 197 204 204 203 197 194 192 197 194 198 203 195 201 209 202 192 190 193 194 191 201 209 209 222 223 199 192 193 189 207 206 204 221 229 227 238 252 259 254 237
194 195 194 193 194 195 194 187 194 193 199 204 199 189 193 200 206 198 190 183 198 193 189 196 201 210 219 223 212 199 189 189 200 204 212 210 214 227 241 261 255 260 227 255
194 195 194 197 201 193 199 195 193 187 196 196 197 187 204 195 198 199 186 196 190 190 191 199 211 213 220 206 199 197 190 195 206 196 216 223 226 237 254 252 260 263 253 264
199 195 193 195 193 197 190 190 194 192 192 199 197 195 200 194 191 191 191 191 191 195 195 197 205 216 212 195 200 201 196 204 212 221 223 231 232 252 256 251 267 270 260 288
198 194 190 189 195 195 191 188 193 194 192 199 200 199 191 193 190 190 183 189 193 191 199 204 214 221 208 200 199 199 204 209 223 228 232 228 251 250 240 242 250 264 279 276
194 191 190 191 194 192 127 197 191 195 196 198 203 186 190 190 184 180 189 193 193 198 205 217 224 202 195 201 198 205 217 225 229 227 236 252 250 242 236 246 261 270 280 268
194 193 195 198 198 196 193 194 132 195 200 196 190 190 182 182 185 192 190 195 201 216 227 216 198 201 201 199 216 222 227 230 230 242 261 251 249 244 279 285 290 284 264 321
202 201 204 203 201 198 201 132 205 207 211 211 189 175 193 192 192 195 201 217 231 217 199 201 199 202 203 217 223 226 228 239 242 257 249 236 245 224 268 271 279 264 320 333
205 206 214 97 87 215 220 211 199 192 189 193 197 189 192 190 193 208 223 195 198 195 200 203 203 205 216 226 226 235 243 259 258 248 233 231 249 281 302 295 323 326 332 402
202 197 198 198 204 202 199 189 193 198 190 193 196 191 192 201 217 217 198 196 200 202 206 206 217 223 227 228 246 257 250 252 236 233 225 272 284 280 277 259 338 328 355 393
192 204 206 199 194 201 202 202 194 184 191 191 193 201 212 229 200 200 202 201 203 214 213 220 226 224 239 251 249 244 242 231 238 253 256 282 276 262 258 324 314 343 407 378
193 195 200 201 195 192 194 191 197 197 191 199 203 214 207 197 200 202 206 211 218 217 225 232 226 248 253 253 261 234 233 244 260 259 279 278 243 266 320 319 342 415 383 364
199 206 211 202 200 198 193 204 193 194 201 199 219 217 202 203 204 209 216 217 225 228 228 238 253 261 254 250 236 232 245 250 291 284 277 299 309 317 322 347 392 357 371 353
196 195 200 207 205 199 195 195 210 203 214 232 201 203 205 204 214 217 224 227 231 236 243 253 239 247 244 246 240 252 271 289 272 248 262 325 319 328 349 372 405 383 360 342
202 206 154 208 206 212 211 205 211 236 200 204 207 211 213 214 219 230 228 230 242 245 251 253 239 242 248 250 266 289 282 263 299 330 317 322 340 355 364 382 392 366 352 332
210 209 206 201 216 203 207 234 211 207 202 214 212 215 221 232 232 231 242 241 253 262 243 226 249 264 240 264 335 273 314 336 321 312 335 343 356 374 420 402 374 354 339 325
196 196 218 210 206 233 232 211 201 214 216 211 229 225 235 235 243 250 253 256 254 246 257 255 240 243 252 350 301 317 319 317 330 347 358 369 403 404 409 384 360 341 329 320
218 213 207 235 223 209 211 214 215 211 228 227 235 241 242 245 254 249 250 236 255 257 256 298 346 291 300 326 323 324 337 346 363 379 369 415 396 387 394 367 348 332 326 316
234 229 212 207 213 209 214 211 225 232 230 237 231 245 246 265 249 243 264 258 301 288 277 284 276 340 336 340 351 359 364 373 378 422 409 398 389 376 380 358 341 329 324 313
210 204 207 203 215 215 226 232 227 234 238 245 252 261 261 247 252 248 322 361 334 333 342 348 356 361 365 370 360 353 404 388 382 385 391 376 376 364 377 354 336 328 321 313
209 210 216 213 218 228 230 233 242 247 240 262 253 256 247 248 262 278 339 352 353 361 367 366 362 356 353 406 397 387 376 368 370 374 376 387 371 362 365 359 339 328 320 313
219 216 231 228 239 238 246 247 251 259 257 251 255 250 289 351 353 372 337 374 371 373 363 350 357 399 398 389 387 405 411 401 374 363 363 379 362 359 358 361 348 331 320 315
233 233 242 245 245 249 253 270 260 253 251 249 293 330 346 385 373 365 371 371 360 350 350 402 397 387 397 409 379 365 375 419 397 377 364 360 353 349 352 360 355 341 329 317
243 250 250 261 272 281 256 261 249 303 341 332 342 382 381 385 370 370 358 349 357 398 403 388 395 386 365 354 350 348 339 336 337 343 387 385 397 383 365 350 356 351 337 329
269 253 249 252 257 253 248 253 324 261 350 385 382 376 368 360 356 346 345 377 403 387 390 372 358 353 354 352 344 338 335 335 346 352 347 343 341 360 366 355 350 351 340 340
264 249 266 262 250 280 312 333 344 362 388 381 369 357 353 347 339 370 395 387 385 369 355 356 352 338 332 350 364 364 361 359 355 350 349 346 343 337 336 344 349 345 346 336
269 253 275 304 308 333 348 343 385 384 375 362 352 344 329 364 390 392 381 371 355 353 347 325 367 372 364 360 356 354 353 353 353 353 354 353 349 346 346 340 334 331 341 337

GFSNGP_2pvu_pres_027.txt.gz
Presure
224 215 209 204 203 202 200 197 195 205 202 205 191 186 193 198 203 202 193 203 198 197 196 195 192 189 189 192 194 197 205 216 227 211 200 197 204 203 220 227 235 241 258 262
210 208 207 189 203 200 197 199 193 197 191 192 190 194 192 190 192 196 187 201 196 188 196 188 188 190 187 191 198 203 217 228 208 201 201 204 203 220 228 236 244 260 254 250
205 203 203 196 200 198 194 194 200 191 192 191 187 191 197 193 190 201 201 193 191 190 187 190 185 188 192 199 210 229 223 200 202 201 203 205 217 227 233 252 253 240 245 246
203 205 198 201 197 195 194 198 195 188 190 188 190 192 194 191 195 198 200 185 188 184 187 187 191 192 198 214 216 200 196 197 204 208 207 226 227 238 269 244 245 239 242 265
198 201 199 198 199 200 193 190 188 189 189 190 194 198 199 197 202 205 215 189 181 188 190 189 192 200 222 204 197 194 198 205 206 213 228 228 238 253 257 236 228 242 261 276
194 194 194 192 194 193 190 193 190 195 199 200 200 203 209 218 224 192 184 182 190 187 193 191 204 227 200 200 198 203 204 208 216 227 232 250 260 243 233 227 235 258 284 288
191 192 195 195 195 191 193 197 201 203 203 206 208 220 202 193 192 184 172 192 195 189 194 211 223 196 197 200 202 208 213 223 228 231 246 240 247 245 234 224 263 280 297 250
196 195 196 194 196 198 199 198 200 203 206 211 191 190 187 196 189 190 191 188 192 194 205 225 194 197 201 200 208 218 229 230 243 257 259 235 242 225 246 256 267 272 274 302
94 201 201 200 200 202 202 205 204 205 200 195 199 193 195 190 191 187 195 191 194 200 234 197 202 203 203 214 218 237 227 253 258 247 238 250 259 251 256 238 284 251 275 349
203 183 209 211 173 188 195 202 199 201 195 182 196 190 185 200 193 192 195 198 206 234 200 203 207 212 214 229 229 245 253 247 238 239 252 252 260 257 255 266 263 329 341 316
196 196 170 153 195 198 189 200 184 198 200 199 206 199 196 193 198 193 202 229 224 202 204 213 213 216 226 239 247 255 244 252 260 259 255 262 264 291 318 319 350 343 306 344
193 147 197 198 204 199 209 192 197 194 200 200 203 190 202 204 200 204 237 212 203 207 216 204 225 235 251 246 260 245 231 243 249 250 254 282 290 334 322 314 320 327 344 356
199 200 202 179 201 192 195 193 198 205 202 201 195 217 205 202 220 233 206 204 214 211 226 235 241 250 253 261 241 244 258 260 247 264 319 288 285 323 338 323 330 350 371 430
195 186 198 203 186 202 201 209 204 201 201 198 198 203 204 240 210 209 215 218 215 235 238 246 247 252 259 244 239 264 259 252 252 283 321 342 341 335 343 350 371 372 412 401
200 202 198 204 209 211 203 201 214 196 196 208 219 242 221 210 212 220 207 230 236 239 247 252 260 248 242 270 255 257 267 257 310 345 340 350 355 360 363 377 400 396 393 392
202 203 211 209 203 208 209 203 202 209 214 242 228 212 204 217 215 217 235 240 244 251 253 251 263 244 249 272 312 291 318 311 357 361 363 368 369 353 377 396 396 390 384 382
210 213 196 197 199 192 205 211 233 236 223 212 209 216 222 206 232 236 240 240 250 250 253 266 266 260 262 263 288 281 372 377 365 356 351 378 403 383 378 364 383 383 363 374
196 197 205 203 205 208 215 229 219 210 199 216 219 210 229 234 234 240 251 256 253 271 247 261 284 312 387 382 373 379 368 357 354 392 393 390 381 372 368 362 362 366 367 366
209 199 206 210 220 232 225 212 197 216 209 207 225 231 235 235 249 257 265 269 263 255 267 252 389 354 384 377 365 354 356 391 397 390 386 394 409 409 385 367 359 366 366 359
208 215 222 226 237 220 211 216 214 209 224 232 235 237 248 261 270 253 262 259 265 269 396 396 386 376 365 352 345 376 400 389 387 396 386 358 350 359 403 375 356 357 353 356
221 227 237 213 205 217 198 214 224 234 235 236 249 260 267 257 267 248 261 326 293 405 390 378 364 353 346 363 390 396 390 381 369 355 346 344 344 338 335 384 372 358 347 342
228 213 217 213 210 214 226 235 231 236 247 261 258 258 260 259 259 281 266 383 398 383 371 359 346 337 383 401 388 384 367 353 350 349 347 339 332 334 343 340 333 364 381 365
216 200 221 211 230 240 236 237 246 258 257 264 265 250 257 295 319 339 390 396 379 365 356 343 360 404 390 383 366 354 357 358 341 327 354 360 357 352 348 341 345 341 337 378
209 228 244 244 229 240 250 262 252 263 265 257 256 270 305 326 343 382 393 376 360 352 340 401 393 384 373 358 361 344 329 388 381 371 365 358 350 348 348 349 347 340 338 331
242 228 241 251 259 266 255 253 271 253 248 303 318 312 318 345 384 386 378 359 359 343 403 384 392 360 358 324 360 381 368 377 438 437 456 452 435 405 364 351 347 344 341 338
250 256 265 258 266 288 275 266 252 267 304 314 326 330 349 390 386 383 363 364 358 396 383 356 364 340 308 387 368 408 397 391 386 384 374 366 372 394 426 386 374 365 381 358
261 249 253 257 259 257 251 283 291 312 320 327 342 367 400 393 382 369 368 394 389 378 373 359 325 308 387 369 419 391 373 366 357 348 342 340 336 339 339 340 326 336 358 340

GFSNGP_2pvu_pres_030.txt.gz
Presure
198 209 217 213 226 241 226 213 209 202 197 196 196 200 193 196 196 192 198 191 192 198 192 201 202 193 187 190 193 188 191 193 195 202 230 210 203 200 207 210 217 230 234 231
211 209 215 247 196 222 213 203 202 196 194 203 192 199 194 194 190 186 189 192 198 194 197 200 202 208 191 192 182 188 191 196 202 228 206 202 201 206 208 216 233 232 268 250
211 258 235 209 221 211 206 196 202 198 196 198 205 196 189 195 190 191 193 199 201 202 203 208 212 186 190 182 191 194 194 201 211 233 199 205 202 207 215 235 243 262 250 243
232 216 218 213 203 201 201 200 193 191 192 196 193 190 193 191 191 196 199 201 205 205 212 191 189 192 181 196 197 196 201 207 235 204 203 205 213 214 228 245 258 250 259 260
203 204 215 211 200 201 200 198 190 195 195 191 189 191 198 196 198 201 203 211 194 191 188 192 191 195 194 193 201 201 206 231 188 202 210 212 215 227 254 255 251 256 246 253
200 194 194 188 193 192 196 196 195 196 114 193 196 195 201 207 206 217 192 185 190 197 193 193 194 188 200 197 198 228 226 204 203 215 215 221 243 263 255 244 259 258 239 255
195 196 196 192 196 191 194 197 199 196 196 197 201 202 205 209 204 198 193 192 193 193 187 191 193 194 196 192 209 223 206 195 215 207 234 252 254 253 251 242 254 257 253 250
200 195 196 199 197 197 198 198 200 200 200 202 207 205 199 192 191 183 190 196 194 196 190 189 194 201 200 224 219 206 202 216 221 241 251 251 258 240 241 253 263 273 246 271
198 194 200 198 197 193 195 199 200 167 192 191 195 180 206 192 192 193 199 193 193 192 193 194 202 204 228 215 200 214 212 236 244 243 250 252 265 247 259 249 257 277 307 326
197 88 197 197 198 198 194 198 195 188 192 192 188 203 190 190 191 195 200 201 197 196 193 204 224 224 210 206 217 213 236 241 251 251 261 261 256 257 268 267 279 294 283 310
195 201 201 204 197 198 200 191 192 192 191 197 193 191 190 193 200 198 205 205 197 198 209 241 215 199 214 215 233 236 242 251 252 265 273 251 257 261 312 335 319 349 357 357
126 200 204 205 197 192 190 195 195 181 190 203 184 192 200 201 202 204 201 202 205 237 232 214 211 219 227 233 238 251 257 253 263 264 254 260 259 265 335 332 364 360 363 369
205 207 206 199 202 198 190 187 191 200 196 211 201 200 202 199 198 204 203 221 226 213 216 218 219 234 235 239 250 259 252 269 258 260 264 284 370 370 364 374 375 350 350 353
204 207 206 206 188 195 193 200 201 189 211 201 198 191 192 203 203 205 224 238 221 218 206 227 237 236 246 254 251 261 275 265 259 260 385 384 387 375 368 361 356 399 390 384
206 210 203 206 194 197 201 197 205 208 202 192 189 201 202 205 215 230 232 213 206 224 229 239 235 249 256 259 265 262 262 267 336 288 389 372 361 349 367 400 397 388 380 378
208 205 193 195 201 201 192 182 201 194 184 190 204 199 211 222 235 233 190 224 230 227 242 237 249 251 262 270 256 261 291 318 345 376 366 354 349 388 401 384 380 399 402 402
198 197 203 201 200 207 208 200 188 205 210 206 211 222 218 239 216 205 227 234 229 241 238 253 252 263 274 255 266 291 395 380 371 359 344 375 394 395 386 382 391 363 348 345
203 201 193 209 210 197 189 204 209 208 209 216 219 218 229 220 218 226 233 242 238 240 258 252 262 269 256 273 404 387 375 365 356 342 391 402 391 381 378 362 349 344 343 341
210 212 208 216 207 208 213 213 215 214 221 220 231 234 209 227 229 236 244 237 249 261 255 258 271 262 265 350 390 377 363 355 346 397 393 381 374 357 347 344 344 343 337 324
216 209 204 204 209 215 215 207 222 205 227 236 207 219 225 231 243 237 248 259 265 264 281 277 265 265 386 392 382 366 362 356 398 383 392 367 355 347 346 333 319 321 327 333
195 208 216 215 210 219 208 204 238 234 204 212 226 233 236 246 243 253 267 264 266 274 266 265 307 385 397 391 376 368 372 393 395 378 357 355 305 391 384 378 370 361 356 353
211 211 219 221 220 232 240 223 209 217 228 235 240 245 242 250 261 258 262 260 266 265 313 332 361 401 395 384 377 401 396 390 365 358 329 318 381 365 386 386 367 355 349 342
224 228 230 222 217 214 209 226 229 235 235 246 242 254 254 270 248 262 261 267 260 319 340 387 404 396 391 389 405 390 416 371 351 315 315 376 403 402 399 414 432 441 425 368
216 215 199 206 226 227 232 232 240 250 246 253 250 263 268 262 266 269 262 273 343 347 412 404 394 393 396 397 383 411 370 390 357 305 377 416 400 380 368 365 362 366 437 428
202 229 228 232 237 244 250 252 248 255 257 263 262 265 263 266 265 273 310 344 413 412 398 394 393 392 391 381 394 397 396 405 305 373 420 399 379 362 351 344 337 336 331 330
235 241 247 252 248 241 257 254 255 266 243 263 262 270 279 270 308 338 381 417 404 393 394 390 392 380 377 397 395 401 402 340 366 415 399 385 367 358 349 340 337 337 336 328
253 243 249 256 257 254 263 256 249 262 264 270 288 272 307 332 369 417 406 397 394 387 391 384 374 376 401 407 398 398 372 412 414 395 380 367 358 355 355 354 351 348 341 340

GFSNGP_2pvu_pres_033.txt.gz
Presure
222 223 221 221 216 209 213 207 205 217 242 215 213 198 198 196 199 205 203 208 196 190 191 194 199 204 203 205 210 212 193 191 190 193 194 197 204 196 213 229 212 201 217 214
218 215 214 207 210 213 211 216 219 245 217 212 201 196 194 193 196 196 191 190 192 195 198 200 204 213 211 210 196 190 185 193 195 202 196 205 195 213 225 211 209 218 224 251
210 208 205 210 215 210 210 206 238 219 203 191 198 193 191 191 194 197 195 195 198 200 207 208 209 198 194 190 187 191 196 195 194 203 202 212 214 224 209 216 217 241 252 272
204 202 206 205 210 233 246 218 198 200 201 199 197 198 199 198 192 193 195 196 200 202 208 203 197 195 197 197 203 202 196 201 204 196 214 226 215 207 215 226 242 261 271 256
204 196 209 207 204 213 222 204 197 199 200 198 198 199 197 197 196 198 199 200 202 200 193 202 199 188 193 202 194 200 203 199 202 215 228 212 210 215 235 238 257 266 270 272
200 203 205 209 208 202 196 191 169 195 196 198 197 196 125 199 202 202 200 204 198 200 186 191 198 195 193 201 205 204 202 205 231 226 212 213 218 233 245 256 272 271 257 250
195 202 203 176 208 197 199 199 194 196 192 196 188 138 203 203 201 193 197 186 195 193 189 190 194 197 199 203 202 206 207 237 214 211 212 234 235 242 256 265 259 253 256 265
201 203 199 202 203 157 193 198 201 199 198 197 198 197 201 209 195 189 200 195 193 197 187 194 196 200 202 205 205 213 232 221 212 214 236 234 247 254 269 264 252 257 267 317
202 203 201 195 197 198 199 200 205 199 198 200 199 199 201 192 198 184 193 193 200 179 194 200 203 197 206 207 215 241 216 210 226 237 235 244 254 263 253 256 263 278 363 362
199 205 201 181 195 195 195 199 201 200 198 199 200 198 194 199 180 192 195 203 189 193 195 192 202 205 213 214 242 214 216 229 234 238 238 253 259 258 254 264 358 391 375 382
212 209 202 198 197 199 199 199 202 201 200 200 200 195 186 189 194 196 203 201 201 200 192 205 205 214 216 240 196 223 227 238 237 241 253 249 263 272 275 269 399 395 381 368
204 211 208 201 201 201 200 199 198 202 201 198 199 192 196 198 194 192 203 203 190 200 202 211 207 217 234 195 225 228 237 238 245 254 265 267 274 269 293 393 381 366 348 337
207 207 208 201 202 206 206 202 201 201 193 208 200 193 198 199 193 204 184 187 206 204 214 214 216 202 215 228 225 238 237 247 260 266 262 263 271 284 391 370 362 345 351 390
210 208 206 209 208 208 203 203 205 210 212 189 197 201 200 197 205 186 203 200 212 216 215 220 239 218 228 227 240 240 249 263 271 262 263 265 376 394 379 367 353 373 384 384
211 212 202 200 201 201 201 199 196 192 195 202 203 195 209 192 199 204 205 219 207 216 226 208 224 227 233 244 241 251 264 263 265 265 270 271 402 391 378 362 381 395 376 365
206 211 204 203 203 192 193 203 203 202 202 195 208 208 200 206 203 215 216 207 217 227 211 225 231 233 243 244 252 258 268 265 278 274 286 403 399 386 376 382 394 378 379 357
203 208 210 209 211 210 207 204 202 192 209 212 203 213 200 206 216 208 216 229 201 227 225 230 238 243 246 253 265 269 266 270 276 338 405 403 391 380 380 390 388 387 349 345
202 202 207 204 201 203 202 197 210 210 203 217 201 203 216 216 217 220 223 217 226 234 233 242 245 246 254 264 269 264 276 284 318 410 406 395 387 389 391 388 374 352 329 306
204 203 202 201 200 208 209 209 204 215 203 207 214 215 219 226 233 213 229 218 233 238 244 249 247 257 257 269 265 279 279 375 414 409 397 392 397 389 381 378 368 313 304 383
201 208 214 214 210 205 216 221 207 214 214 214 223 230 198 209 228 227 232 237 243 248 249 252 255 259 269 273 285 282 398 422 409 399 397 398 384 411 391 386 394 301 368 368
208 210 210 211 223 224 213 214 213 219 225 232 219 201 234 226 232 234 242 238 255 251 253 254 267 265 275 287 285 425 423 407 402 399 396 383 400 365 392 395 327 381 382 395
220 219 218 217 218 220 223 225 222 227 220 205 238 227 229 235 239 241 248 254 252 256 251 273 273 286 297 306 429 415 409 402 401 390 381 394 401 395 403 389 375 363 399 382
216 221 226 227 224 222 226 230 211 216 234 220 228 237 239 245 254 253 253 252 261 267 280 286 288 294 432 419 412 404 398 395 386 378 397 406 401 401 381 368 388 410 387 367
226 224 218 224 225 211 239 228 225 215 238 238 244 249 257 253 250 253 263 270 279 282 270 282 373 419 412 403 398 399 385 385 388 415 408 400 386 372 367 415 398 387 377 362
220 206 220 230 227 222 216 238 240 242 249 253 260 262 251 254 264 269 280 289 285 287 328 421 410 402 397 402 384 383 392 417 417 397 380 386 436 421 403 390 380 371 364 355
227 225 226 234 238 243 244 247 254 267 268 256 253 261 265 268 281 284 271 281 319 404 409 401 405 398 385 383 401 403 419 399 382 410 447 419 390 377 370 366 363 362 361 357
240 243 245 247 250 258 263 265 267 260 255 267 269 270 268 280 274 282 291 396 407 402 407 396 388 385 421 424 434 406 387 428 452 425 391 371 383 384 525 556 536 519 509 487

GFSNGP_2pvu_pres_036.txt.gz
Presure
226 219 223 223 220 222 224 223 217 213 212 212 215 201 227 218 218 204 194 196 193 200 198 192 188 188 188 194 200 208 199 193 193 196 196 194 205 211 207 207 234 221 213 211
217 224 218 219 221 218 213 205 208 215 213 188 202 226 219 206 197 197 196 193 194 193 193 193 192 194 204 212 197 208 195 200 195 193 203 204 208 207 211 226 221 220 216 243
218 221 223 214 218 206 210 214 208 213 214 209 241 223 205 197 197 194 194 196 196 198 199 202 208 217 200 203 199 192 192 194 199 203 207 206 205 213 227 227 207 212 240 238
218 224 214 215 208 203 207 205 206 241 251 237 208 199 200 198 196 196 197 195 197 201 203 206 196 199 191 191 197 196 188 196 205 201 205 205 214 230 227 209 226 241 238 243
194 219 212 208 209 199 207 208 214 219 225 206 201 200 198 197 196 193 195 200 199 203 208 199 191 199 200 194 197 181 202 204 195 205 212 213 201 217 199 229 239 238 242 254
197 215 208 208 203 204 207 206 210 207 201 199 199 196 198 194 193 197 197 200 200 205 185 193 195 184 199 203 199 202 204 192 204 213 207 219 235 192 226 235 238 240 257 263
213 208 210 207 206 199 203 205 211 207 199 199 201 200 201 200 196 198 201 200 203 207 195 198 181 200 192 197 202 203 183 203 208 207 220 237 198 227 234 237 239 254 266 260
204 212 209 201 199 173 202 200 203 205 202 201 202 200 200 202 198 196 199 202 203 193 190 190 200 196 186 203 204 192 205 213 212 218 228 203 226 237 236 239 250 265 259 262
204 213 209 206 197 164 189 204 201 196 195 197 196 197 198 200 203 202 200 202 197 192 196 199 199 194 203 198 202 202 215 211 217 223 205 227 233 235 242 247 264 267 261 274
205 210 198 203 106 201 200 199 200 202 199 195 197 199 200 196 198 202 205 192 207 194 195 201 197 202 182 206 200 216 205 219 232 220 225 232 236 242 247 261 256 262 275 277
207 204 208 167 203 205 204 204 204 202 200 200 201 202 200 205 203 200 207 207 202 190 187 199 203 192 206 204 215 202 220 233 224 224 233 231 244 247 258 263 261 274 276 325
210 129 201 204 209 208 202 200 202 206 206 203 203 205 207 204 200 204 205 196 191 203 194 209 206 208 208 208 215 222 229 225 227 235 230 248 250 254 259 264 269 283 314 403
212 215 204 203 202 202 208 208 203 202 202 206 203 203 203 201 200 193 191 201 203 201 187 205 207 212 202 215 224 220 227 227 238 230 244 251 254 259 266 276 291 295 399 397
222 210 211 212 207 208 204 203 209 207 203 197 199 201 199 192 198 208 207 193 211 206 207 200 214 211 218 228 214 230 231 241 230 243 251 251 262 271 283 289 331 409 407 398
228 225 220 214 208 206 202 203 201 207 209 203 201 205 209 209 208 200 192 210 205 210 212 213 213 224 229 229 236 232 241 236 248 252 259 266 276 288 289 329 420 421 408 393
232 229 225 224 220 218 217 213 204 206 206 207 207 208 203 204 194 211 207 208 215 215 209 216 227 232 231 236 237 242 246 255 253 262 271 275 290 291 405 424 420 407 399 393
231 232 232 231 225 217 218 224 224 218 202 209 208 205 203 213 213 209 217 222 215 215 224 222 229 243 233 242 243 243 254 250 263 274 273 288 299 426 428 417 406 399 394 381
221 229 234 232 233 232 226 224 225 225 224 210 207 215 214 210 218 225 217 216 225 220 229 237 237 239 245 246 256 258 257 265 276 272 285 301 436 426 411 403 395 392 380 380
230 226 224 227 232 233 232 228 225 223 210 218 211 209 211 218 219 220 228 229 199 243 234 239 246 247 249 262 261 262 267 276 276 288 315 432 418 406 395 390 384 378 380 402
222 219 226 244 241 230 224 224 227 228 227 227 223 220 218 223 230 227 199 234 235 236 236 244 248 257 267 255 267 267 280 277 292 400 421 411 401 404 384 378 392 398 405 400
226 225 235 239 233 225 226 230 231 230 229 229 227 226 230 228 229 229 236 235 239 235 248 251 265 270 259 272 266 280 283 296 382 420 412 409 388 383 414 411 417 410 392 384
234 242 241 230 232 234 230 229 230 231 228 229 232 228 229 232 240 228 238 234 245 253 258 272 266 268 273 274 280 307 303 421 421 411 397 404 423 443 420 401 387 379 388 396
246 230 228 232 232 230 227 225 228 233 233 227 231 240 244 225 235 238 245 255 257 272 276 267 275 269 283 306 295 365 422 409 397 415 452 454 432 406 393 448 450 435 420 404
234 237 237 239 238 238 238 234 228 235 242 244 229 233 235 239 248 252 262 273 277 270 276 274 289 305 293 304 423 415 401 397 424 459 435 407 397 467 450 405 383 371 366 365
239 241 242 245 246 248 242 237 236 235 232 237 239 244 248 251 266 275 276 273 279 276 292 281 293 311 429 422 403 392 396 420 408 426 396 396 452 401 379 377 394 582 580 559
226 228 231 233 234 234 236 237 237 242 245 247 254 263 275 277 274 277 283 285 300 294 295 322 432 423 407 397 407 394 412 400 427 393 381 425 368 374 379 444 510 509 545 550
235 236 237 240 244 246 247 251 257 264 271 275 274 275 277 270 277 278 281 286 294 314 406 421 412 401 399 401 397 459 387 380 410 375 369 368 366 365 413 513 499 491 488 496